Weather in Berendeyevo

Russia / Yaroslavl Oblast     56°35′53″N   39°01′12″E
temp.,
°C
wind,
m/s
gust,
m/s
humid.,
%
clouds,
%
prec.,
mm/h
press.,
hPa
HPBL,
m
4 march, thu
thu400:00−2wsw51294100 0.1 1004594
03:00−1wsw61397100 0.9 1001796
06:00+1w81597100 1.5 997969
09:000wnw71398100 4.1 997820
12:00−1nw6107492 0.3 9981136
15:00−1nw578393 0.3 998940
18:00−5nw3690100 0.1 999141
21:00−7nw379569 0.1 1001174
5 march, fri
fri500:00−9nw239784 0.1 100230
03:00−10wnw239788 0.1 100432
06:00−10w239767 0.0 100534
09:00−6wnw489384 0.1 1006480
12:00−5wnw5788100 0.1 1007811
15:00−5nw5781100 0.4 10081021
18:00−8nw348879 0.2 101062
21:00−11nw349341 0.2 101362
6 march, sat
sat600:00−14n239413 0.0 101524
03:00−16nnw11896 0.0 101620
06:00−16nw22850 0.0 101620
09:00−13wnw23860 0.0 1017106
12:00−8wnw357932 0.0 1016635
15:00−7w457956 0.1 10151017
18:00−9wsw3488100 0.1 101478
21:00−12sw359278 0.1 101488
7 march, sun
sun700:00−11ssw5109367 0.0 1010251
03:00−9sw7159177 0.1 1006701
06:00−7sw81592100 0.3 1001848
09:00−5sw91593100 1.1 9961133
12:00−4sw91494100 1.5 9931111
15:00−4wnw71280100 3.4 9931524
18:00−9w5127567 0.2 996334
21:00−10sw5127947 0.2 996285
8 march, mon
mon800:00−8sw7157891 0.0 993825
03:00−7wsw7139495 0.4 992824
06:00−10wnw8149188 0.3 993629
09:00−13nw8148677 0.5 996734
12:00−10nw81288100 0.2 1000886
15:00−10nw81286100 0.4 1004880
18:00−11nw61190100 0.1 1007574
21:00−13nw4109498 0.1 1010308